When you browse on this site, cookies collect data to enhance your experience and personalize the content and advertising you see.
Visit our Privacy Policy to learn more. By continuing to use the site, you agree to this use of cookies and data.
  • en Suisse
  • Liste des pays
  • À 7 jours
  • Température de l'eau
  • Carte satellitaire
  • Carte météo
  • Widgets météo
  • user-avatar
    Se connecter

    Météo par heure à Korçё

    Ce jour, 16 Janvier, Mercredi

    Heure Température Précipitation Vent Pression Humidité
    00:00 -9°C° 0 mm 1 m/s 664 mmHg 59%
    01:00 -8°C° 0 mm 1 m/s 664 mmHg 55%
    02:00 -8°C° 0 mm 1 m/s 664 mmHg 54%
    03:00 -8°C° 0 mm 1 m/s 664 mmHg 52%
    04:00 -8°C° 0 mm 1 m/s 665 mmHg 50%
    05:00 -8°C° 0 mm 1 m/s 665 mmHg 49%
    06:00 -8°C° 0 mm 0 m/s 665 mmHg 48%
    07:00 -7°C° 0 mm 1 m/s 665 mmHg 48%
    08:00 -4°C° 0 mm 1 m/s 666 mmHg 49%
    09:00 -4°C° 0 mm 2 m/s 667 mmHg 51%
    10:00 -2°C° 0 mm 2 m/s 667 mmHg 52%
    11:00 -1°C° 0 mm 2 m/s 667 mmHg 55%
    12:00 -1°C° 0 mm 3 m/s 668 mmHg 57%
    13:00 0°C° 0 mm 3 m/s 668 mmHg 59%
    14:00 -1°C° 0 mm 2 m/s 667 mmHg 63%
    15:00 -2°C° 0 mm 2 m/s 667 mmHg 67%
    16:00 -2°C° 0 mm 2 m/s 667 mmHg 71%
    17:00 -1°C° 0 mm 1 m/s 667 mmHg 72%
    18:00 -3°C° 0 mm 1 m/s 666 mmHg 73%
    19:00 -4°C° 0 mm 1 m/s 666 mmHg 74%
    20:00 -3°C° 0 mm 1 m/s 666 mmHg 73%
    21:00 -3°C° 0 mm 1 m/s 667 mmHg 72%
    22:00 -3°C° 0 mm 1 m/s 667 mmHg 71%
    23:00 -3°C° 0 mm 1 m/s 667 mmHg 70%

    Demain, 17 Janvier, Jeudi

    Heure Température Précipitation Vent Pression Humidité
    00:00 -4°C° 0 mm 0 m/s 667 mmHg 69%
    01:00 -4°C° 0 mm 0 m/s 667 mmHg 67%
    02:00 -4°C° 0 mm 0 m/s 667 mmHg 66%
    03:00 -4°C° 0 mm 0 m/s 666 mmHg 65%
    04:00 -4°C° 0 mm 0 m/s 666 mmHg 64%
    05:00 -3°C° 0 mm 1 m/s 666 mmHg 63%
    06:00 -3°C° 0 mm 1 m/s 666 mmHg 62%
    07:00 -3°C° 0 mm 1 m/s 666 mmHg 61%
    08:00 -1°C° 0 mm 1 m/s 667 mmHg 60%
    09:00 +1°C° 0 mm 1 m/s 668 mmHg 59%
    10:00 +3°C° 0 mm 1 m/s 668 mmHg 58%
    11:00 +4°C° 0 mm 1 m/s 668 mmHg 59%
    12:00 +5°C° 0 mm 1 m/s 668 mmHg 61%
    13:00 +5°C° 0 mm 1 m/s 668 mmHg 62%
    14:00 +4°C° 0 mm 1 m/s 667 mmHg 66%
    15:00 +3°C° 0 mm 1 m/s 667 mmHg 69%
    16:00 +2°C° 0 mm 1 m/s 666 mmHg 72%
    17:00 +1°C° 0 mm 1 m/s 666 mmHg 77%
    18:00 -2°C° 0 mm 2 m/s 666 mmHg 81%
    19:00 -3°C° 0 mm 2 m/s 666 mmHg 86%
    20:00 -3°C° 0 mm 2 m/s 666 mmHg 88%
    21:00 -3°C° 0 mm 2 m/s 666 mmHg 90%
    22:00 -3°C° 0 mm 2 m/s 666 mmHg 92%
    23:00 -3°C° 0 mm 2 m/s 666 mmHg 93%

    Après-demain, 18 Janvier, Vendredi

    Heure Température Précipitation Vent Pression Humidité
    00:00 -3°C° 0 mm 2 m/s 666 mmHg 93%
    01:00 -3°C° 0 mm 2 m/s 666 mmHg 94%
    02:00 -2°C° 0 mm 2 m/s 666 mmHg 95%
    03:00 -2°C° 0 mm 2 m/s 665 mmHg 96%
    04:00 -1°C° 0 mm 2 m/s 665 mmHg 97%
    05:00 -1°C° 0.2 mm 2 m/s 665 mmHg 97%
    06:00 -1°C° 0.2 mm 2 m/s 665 mmHg 96%
    07:00 +1°C° 0.2 mm 2 m/s 666 mmHg 96%
    08:00 +1°C° 0.4 mm 2 m/s 666 mmHg 96%
    09:00 +1°C° 0.4 mm 2 m/s 666 mmHg 96%
    10:00 +2°C° 0.4 mm 2 m/s 666 mmHg 95%
    11:00 +2°C° 0.1 mm 2 m/s 666 mmHg 94%
    12:00 +3°C° 0.1 mm 2 m/s 666 mmHg 93%
    13:00 +3°C° 0.1 mm 2 m/s 666 mmHg 91%
    14:00 +3°C° 0.1 mm 2 m/s 666 mmHg 92%
    15:00 +2°C° 0.1 mm 2 m/s 666 mmHg 93%
    16:00 +2°C° 0.1 mm 2 m/s 666 mmHg 94%
    17:00 +1°C° 0 mm 2 m/s 666 mmHg 94%
    18:00 +1°C° 0 mm 2 m/s 666 mmHg 93%
    19:00 -1°C° 0 mm 2 m/s 666 mmHg 93%
    20:00 -1°C° 0 mm 2 m/s 666 mmHg 93%
    21:00 -1°C° 0 mm 2 m/s 666 mmHg 93%
    22:00 -1°C° 0 mm 2 m/s 666 mmHg 93%
    23:00 -1°C° 0 mm 2 m/s 666 mmHg 93%

    19 Janvier, Samedi

    Heure Température Précipitation Vent Pression Humidité
    00:00 -1°C° 0 mm 2 m/s 666 mmHg 94%
    01:00 -1°C° 0 mm 2 m/s 666 mmHg 94%
    02:00 -1°C° 0.1 mm 2 m/s 666 mmHg 95%
    03:00 -1°C° 0.1 mm 2 m/s 666 mmHg 95%
    04:00 +1°C° 0.1 mm 2 m/s 666 mmHg 95%
    05:00 +1°C° 0 mm 2 m/s 666 mmHg 95%
    06:00 +1°C° 0 mm 2 m/s 666 mmHg 95%
    07:00 +1°C° 0 mm 2 m/s 666 mmHg 95%
    08:00 +1°C° 0 mm 2 m/s 667 mmHg 92%
    09:00 +2°C° 0 mm 2 m/s 667 mmHg 89%
    10:00 +2°C° 0 mm 3 m/s 667 mmHg 87%
    11:00 +2°C° 0.2 mm 3 m/s 667 mmHg 87%
    12:00 +2°C° 0.2 mm 3 m/s 666 mmHg 87%
    13:00 +2°C° 0.2 mm 3 m/s 666 mmHg 87%
    14:00 +3°C° 0.6 mm 2 m/s 666 mmHg 88%
    15:00 +2°C° 0.6 mm 2 m/s 665 mmHg 90%
    16:00 +2°C° 0.6 mm 2 m/s 665 mmHg 91%
    17:00 +2°C° 0.3 mm 2 m/s 665 mmHg 92%
    18:00 +2°C° 0.3 mm 2 m/s 665 mmHg 92%
    19:00 +2°C° 0.3 mm 2 m/s 665 mmHg 92%
    20:00 +1°C° 0.2 mm 2 m/s 665 mmHg 91%
    21:00 +1°C° 0.2 mm 2 m/s 665 mmHg 91%
    22:00 +1°C° 0.2 mm 2 m/s 665 mmHg 90%
    23:00 +1°C° 0.1 mm 2 m/s 665 mmHg 89%

    20 Janvier, Dimanche

    Heure Température Précipitation Vent Pression Humidité
    00:00 +1°C° 0.1 mm 2 m/s 665 mmHg 88%
    01:00 -1°C° 0.1 mm 2 m/s 664 mmHg 88%
    02:00 +1°C° 0.3 mm 2 m/s 664 mmHg 88%
    03:00 0°C° 0.3 mm 3 m/s 664 mmHg 88%
    04:00 0°C° 0.3 mm 3 m/s 664 mmHg 89%
    05:00 0°C° 0.4 mm 3 m/s 664 mmHg 89%
    06:00 +1°C° 0.4 mm 2 m/s 664 mmHg 90%
    07:00 +1°C° 0.4 mm 2 m/s 664 mmHg 91%
    08:00 0°C° 0.7 mm 3 m/s 664 mmHg 91%
    09:00 +1°C° 0.7 mm 3 m/s 664 mmHg 91%
    10:00 +1°C° 0.7 mm 3 m/s 665 mmHg 91%
    11:00 +2°C° 0.7 mm 3 m/s 664 mmHg 91%
    12:00 +2°C° 0.7 mm 3 m/s 664 mmHg 92%
    13:00 +2°C° 0.7 mm 3 m/s 664 mmHg 92%
    14:00 +3°C° 0.2 mm 2 m/s 663 mmHg 92%
    15:00 +3°C° 0.2 mm 2 m/s 663 mmHg 92%
    16:00 +3°C° 0.2 mm 2 m/s 663 mmHg 92%
    17:00 +2°C° 0 mm 2 m/s 663 mmHg 91%
    18:00 +1°C° 0 mm 2 m/s 663 mmHg 90%
    19:00 -1°C° 0 mm 2 m/s 663 mmHg 90%
    20:00 -1°C° 0 mm 2 m/s 663 mmHg 88%
    21:00 -1°C° 0 mm 2 m/s 663 mmHg 86%
    22:00 -1°C° 0 mm 2 m/s 663 mmHg 84%
    23:00 -1°C° 0 mm 2 m/s 663 mmHg 84%

    21 Janvier, Lundi

    Heure Température Précipitation Vent Pression Humidité
    00:00 -1°C° 0 mm 2 m/s 663 mmHg 84%
    01:00 +1°C° 0 mm 1 m/s 663 mmHg 84%
    02:00 0°C° 0 mm 1 m/s 663 mmHg 85%
    03:00 0°C° 0 mm 1 m/s 663 mmHg 87%
    04:00 0°C° 0 mm 1 m/s 663 mmHg 88%
    05:00 0°C° 0 mm 1 m/s 663 mmHg 89%
    06:00 0°C° 0 mm 1 m/s 663 mmHg 89%
    07:00 0°C° 0 mm 1 m/s 663 mmHg 90%
    08:00 +2°C° 0 mm 1 m/s 664 mmHg 88%
    09:00 +3°C° 0 mm 1 m/s 664 mmHg 86%
    10:00 +4°C° 0 mm 2 m/s 665 mmHg 84%
    11:00 +5°C° 0 mm 1 m/s 665 mmHg 82%
    12:00 +6°C° 0 mm 1 m/s 665 mmHg 80%
    13:00 +6°C° 0 mm 1 m/s 665 mmHg 79%
    14:00 +6°C° 0 mm 1 m/s 665 mmHg 81%
    15:00 +5°C° 0 mm 1 m/s 665 mmHg 84%
    16:00 +5°C° 0 mm 1 m/s 664 mmHg 87%
    17:00 +4°C° 0 mm 1 m/s 664 mmHg 89%
    18:00 +3°C° 0 mm 1 m/s 664 mmHg 90%
    19:00 +2°C° 0 mm 1 m/s 664 mmHg 92%
    20:00 +1°C° 0 mm 2 m/s 664 mmHg 92%
    21:00 -1°C° 0 mm 2 m/s 664 mmHg 91%
    22:00 -1°C° 0 mm 2 m/s 664 mmHg 91%
    23:00 -1°C° 0 mm 2 m/s 664 mmHg 90%
    Voir plus